Location: WHS+Essen
(51.3947°N, 6.9794°E)
Time: 22:38:15
(UTC+02:00)

ISS - Pass Details

Date: 22 May 2019
Orbit: 408 x 418 km, 51.6° (Epoch: 19 June)

Event Time Altitude Azimuth Distance (km) Brightness Sun altitude
Rises 22:34:46 0° 249° (WSW) 2,349 0.3 -8.7°
Reaches altitude 10° 22:36:51 10° 248° (WSW) 1,491 -0.7 -8.9°
Maximum altitude 22:40:11 70° 164° (SSE) 447 -3.8 -9.2°
Drops below altitude 10° 22:43:32 10° 80° (E) 1,501 -1.2 -9.6°
Sets 22:45:33 0° 78° (ENE) 2,329 -0.2 -9.7°
